Weather History for Aberdeen, SD

Change the Weather History Date:

Sunday, February 10, 2013

  Actual Average Record
Temperature  
Mean Temperature 27 °F 16 °F  
Max Temperature 31 °F 26 °F 55 °F (1918)
Min Temperature 22 °F 5 °F -27 °F (1981)
Degree Days  
Heating Degree Days 38 49  
Month to date heating degree days 477 505  
Since 1 July heating degree days 5490 5639  
Cooling Degree Days 0 0  
Month to date cooling degree days 0 0  
Year to date cooling degree days 0 0  
Moisture  
Dew Point 24 °F    
Average Humidity 87    
Maximum Humidity 92    
Minimum Humidity 81    
Precipitation  
Precipitation 0.24 in 0.02 in 0.65 in (2013)
Month to date precipitation 0.30 0.16  
Year to date precipitation 1.08 0.63  
Snow  
Snow 6.30 in - - ()
Month to date snowfall 11.6  
Since 1 July snowfall 35.1  
Snow Depth 10.00 in    
Sea Level Pressure  
Sea Level Pressure 29.60 in    
Wind  
Wind Speed 23 mph (North)    
Max Wind Speed 35 mph    
Max Gust Speed 44 mph    
Visibility 1 miles    
Events Fog , Snow    
T = Trace of Precipitation, MM = Missing Value Source: NWS Daily Summary

Daily Weather History Graph

Daily Weather History Graph

Search for Another Location

Airport:

Trip Planner

Search our weather history database for the weather conditions in past years. The results will help you decide how hot, cold, wet, or windy it might be!

Date:

Astronomy

Feb. 10, 2013 Rise Set
Actual Time 7:42 AM CST 5:54 PM CST
Civil Twilight 7:11 AM CST 6:24 PM CST
Nautical Twilight 6:36 AM CST 6:59 PM CST
Astronomical Twilight 6:02 AM CST 7:34 PM CST
Moon 7:29 AM CST (2/10) 6:51 PM CST (2/10)
Length of Visible Light 11h 13m
Length of Day
10h 11m
New Moon, 0% of the Moon is Illuminated
Feb 10
New Moon
Feb 17
First Quarter
Feb 25
Full
Mar 4
Last Quarter
Mar 11
New

Hourly Weather History & Observations

Time (CST) Temp. Windchill Dew Point Humidity Pressure Visibility Wind Dir Wind Speed Gust Speed Precip Events Conditions
12:15 AM 30.2 °F 19.8 °F 28.4 °F 93% 29.70 in 1.2 mi NE 13.8 mph - 0.03 in Snow Light Snow
12:31 AM 30.2 °F 19.8 °F 28.4 °F 93% 29.70 in 1.5 mi NE 13.8 mph - 0.04 in Snow Light Snow
12:38 AM 30.2 °F 19.8 °F 28.4 °F 93% 29.69 in 1.8 mi NE 13.8 mph - 0.04 in Snow Light Snow
12:53 AM 30.9 °F 21.2 °F 28.0 °F 89% 29.73 in 3.0 mi NE 12.7 mph - 0.05 in Snow Light Snow
1:36 AM 30.2 °F 19.8 °F 28.4 °F 93% 29.68 in 2.5 mi NE 13.8 mph - 0.00 in Snow Light Snow
1:49 AM 30.2 °F 19.8 °F 28.4 °F 93% 29.68 in 3.0 mi NE 13.8 mph - 0.00 in Snow Light Snow
1:53 AM 30.0 °F 19.5 °F 28.0 °F 92% 29.72 in 3.0 mi NE 13.8 mph - 0.00 in Snow Light Snow
1:59 AM 30.2 °F 19.3 °F 28.4 °F 93% 29.67 in 2.5 mi NE 15.0 mph - 0.01 in Snow Light Snow
2:32 AM 30.2 °F 19.8 °F 28.4 °F 93% 29.65 in 1.8 mi NE 13.8 mph - 0.03 in Snow Light Snow
2:53 AM 30.0 °F 19.5 °F 27.0 °F 88% 29.68 in 1.5 mi NE 13.8 mph - 0.04 in Snow Light Snow
3:09 AM 30.2 °F 19.8 °F 26.6 °F 86% 29.62 in 2.0 mi NE 13.8 mph - 0.01 in Snow Light Snow
3:23 AM 30.2 °F 19.8 °F 26.6 °F 86% 29.61 in 3.0 mi NE 13.8 mph - 0.01 in Snow Light Snow
3:40 AM 30.2 °F 19.8 °F 26.6 °F 86% 29.60 in 2.5 mi NNE 13.8 mph - 0.01 in Snow Light Snow
3:50 AM 30.2 °F 18.9 °F 26.6 °F 86% 29.60 in 1.2 mi NNE 16.1 mph - 0.01 in Snow Light Snow
3:53 AM 30.0 °F 19.1 °F 27.0 °F 88% 29.64 in 1.2 mi NNE 15.0 mph - 0.01 in Snow Light Snow
4:05 AM 30.2 °F 19.8 °F 26.6 °F 86% 29.60 in 2.0 mi NNE 13.8 mph - 0.01 in Snow Light Snow
4:34 AM 30.2 °F 18.9 °F 26.6 °F 86% 29.60 in 1.2 mi NNE 16.1 mph - 0.02 in Snow Light Snow
4:44 AM 30.2 °F 19.8 °F 26.6 °F 86% 29.60 in 0.8 mi NE 13.8 mph - 0.03 in Snow Light Snow
4:53 AM 30.0 °F 19.5 °F 27.0 °F 88% 29.65 in 0.8 mi NNE 13.8 mph - 0.05 in Snow Light Snow
5:53 AM 30.0 °F 19.1 °F 27.0 °F 88% 29.62 in 0.8 mi NE 15.0 mph - 0.08 in Snow Light Snow
6:06 AM 28.4 °F 16.6 °F 26.6 °F 93% 29.57 in 1.0 mi NE 16.1 mph - 0.01 in Snow Light Snow
6:22 AM 28.4 °F 16.2 °F 26.6 °F 93% 29.58 in 1.0 mi NE 17.3 mph - 0.01 in Snow Light Snow
6:29 AM 28.4 °F 17.5 °F 26.6 °F 93% 29.57 in 0.8 mi NE 13.8 mph - 0.01 in Snow Light Snow
6:53 AM 28.9 °F 17.3 °F 26.1 °F 89% 29.60 in 0.5 mi NNE 16.1 mph - 0.03 in Fog , Snow Snow
7:04 AM 28.4 °F 15.8 °F 26.6 °F 93% 29.55 in 1.2 mi NNE 18.4 mph - 0.00 in Snow Light Snow
7:11 AM 28.4 °F 16.6 °F 26.6 °F 93% 29.55 in 1.5 mi NNE 16.1 mph - 0.00 in Snow Light Snow
7:18 AM 28.4 °F 16.2 °F 26.6 °F 93% 29.55 in 1.0 mi NNE 17.3 mph - 0.00 in Snow Light Snow
7:32 AM 28.4 °F 15.1 °F 24.8 °F 86% 29.55 in 1.5 mi NNE 20.7 mph - 0.01 in Snow Light Snow
7:40 AM 28.4 °F 15.4 °F 24.8 °F 86% 29.55 in 1.0 mi NNE 19.6 mph 28.8 mph 0.01 in Snow Light Snow
7:53 AM 28.0 °F 14.9 °F 25.0 °F 88% 29.60 in 0.8 mi NNE 19.6 mph - 0.01 in Snow Light Snow
8:22 AM 28.4 °F 15.1 °F 24.8 °F 86% 29.55 in 0.2 mi NNE 20.7 mph 27.6 mph 0.01 in Fog , Snow Snow
8:29 AM 28.4 °F 15.1 °F 24.8 °F 86% 29.55 in 0.5 mi NNE 20.7 mph 27.6 mph 0.01 in Fog , Snow Light Snow
8:41 AM 28.4 °F 14.7 °F 24.8 °F 86% 29.54 in 1.0 mi NNE 21.9 mph 29.9 mph 0.02 in Snow Light Snow
8:49 AM 28.4 °F 15.4 °F 24.8 °F 86% 29.54 in 1.0 mi NNE 19.6 mph 28.8 mph 0.02 in Snow Light Snow
8:53 AM 28.0 °F 14.3 °F 25.0 °F 88% 29.58 in 0.8 mi NNE 21.9 mph 28.8 mph 0.02 in Snow Light Snow
9:04 AM 28.4 °F 15.4 °F 24.8 °F 86% 29.54 in 0.2 mi NNE 19.6 mph 27.6 mph 0.00 in Fog , Snow Snow
9:12 AM 28.4 °F 15.4 °F 24.8 °F 86% 29.55 in 0.2 mi NNE 19.6 mph 27.6 mph 0.00 in Fog , Snow Heavy Snow
9:35 AM 28.4 °F 15.1 °F 24.8 °F 86% 29.55 in 0.2 mi NNE 20.7 mph 28.8 mph 0.03 in Fog , Snow Heavy Snow
9:46 AM 28.4 °F 15.8 °F 24.8 °F 86% 29.54 in 0.2 mi NNE 18.4 mph 26.5 mph 0.05 in Fog , Snow Snow
9:53 AM 28.0 °F 15.3 °F 25.0 °F 88% 29.59 in 0.2 mi NNE 18.4 mph - 0.05 in Fog , Snow Snow
10:07 AM 28.4 °F 16.2 °F 24.8 °F 86% 29.54 in 0.5 mi NNE 17.3 mph - 0.00 in Fog , Snow Light Snow
10:15 AM 28.4 °F 16.2 °F 24.8 °F 86% 29.54 in 0.5 mi NNE 17.3 mph 25.3 mph 0.00 in Fog , Snow Snow
10:20 AM 28.4 °F 15.8 °F 24.8 °F 86% 29.53 in 0.2 mi NNE 18.4 mph 25.3 mph 0.00 in Fog , Snow Snow
10:30 AM 28.4 °F 15.8 °F 24.8 °F 86% 29.53 in 0.5 mi NNE 18.4 mph 24.2 mph 0.01 in Fog , Snow Snow
10:46 AM 28.4 °F 16.2 °F 24.8 °F 86% 29.53 in 1.0 mi NNE 17.3 mph - 0.02 in Snow Light Snow
10:53 AM 28.0 °F 15.7 °F 25.0 °F 88% 29.58 in 1.2 mi NNE 17.3 mph - 0.02 in Snow Light Snow
11:11 AM 28.4 °F 15.8 °F 24.8 °F 86% 29.53 in 0.8 mi NNE 18.4 mph - 0.01 in Snow Light Snow
11:22 AM 28.4 °F 16.2 °F 24.8 °F 86% 29.53 in 1.2 mi NNE 17.3 mph - 0.01 in Snow Light Snow
11:41 AM 28.4 °F 15.4 °F 24.8 °F 86% 29.52 in 0.8 mi North 19.6 mph 27.6 mph 0.02 in Snow Light Snow
11:50 AM 28.4 °F 15.8 °F 24.8 °F 86% 29.52 in 1.2 mi North 18.4 mph - 0.02 in Snow Light Snow
11:53 AM 28.0 °F 14.9 °F 25.0 °F 88% 29.56 in 1.2 mi North 19.6 mph - 0.02 in Snow Light Snow
12:06 PM 28.4 °F 15.1 °F 24.8 °F 86% 29.51 in 0.8 mi North 20.7 mph - 0.00 in Snow Light Snow
12:19 PM 28.4 °F 14.7 °F 24.8 °F 86% 29.51 in 0.5 mi North 21.9 mph - 0.00 in Fog , Snow Snow
12:32 PM 28.4 °F 14.7 °F 24.8 °F 86% 29.50 in 0.2 mi North 21.9 mph 28.8 mph 0.00 in Fog , Snow Snow
12:48 PM 28.4 °F 14.4 °F 24.8 °F 86% 29.50 in 0.5 mi North 23.0 mph - 0.01 in Fog , Snow Snow
12:53 PM 28.0 °F 14.3 °F 24.1 °F 85% 29.54 in 0.5 mi North 21.9 mph - 0.01 in Fog , Snow Snow
1:12 PM 26.6 °F 11.4 °F 24.8 °F 93% 29.49 in 0.5 mi North 25.3 mph 31.1 mph 0.00 in Fog , Snow Snow
1:45 PM 28.4 °F 14.7 °F 24.8 °F 86% 29.50 in 0.5 mi North 21.9 mph 29.9 mph 0.00 in Fog , Snow Snow
1:53 PM 27.0 °F 12.2 °F 24.1 °F 89% 29.54 in 0.5 mi North 24.2 mph 28.8 mph 0.00 in Fog , Snow Snow
2:05 PM 26.6 °F 11.7 °F 24.8 °F 93% 29.50 in 0.5 mi North 24.2 mph 31.1 mph 0.00 in Fog , Snow Snow
2:11 PM 26.6 °F 12.4 °F 24.8 °F 93% 29.50 in 0.2 mi North 21.9 mph 31.1 mph 0.00 in Fog , Snow Snow
2:16 PM 26.6 °F 12.7 °F 24.8 °F 93% 29.50 in 0.5 mi North 20.7 mph 29.9 mph 0.01 in Fog , Snow Snow
2:25 PM 26.6 °F 12.4 °F 24.8 °F 93% 29.50 in 0.5 mi North 21.9 mph 28.8 mph 0.02 in Fog , Snow Snow
2:53 PM 27.0 °F 11.9 °F 23.0 °F 85% 29.55 in 0.5 mi North 25.3 mph 32.2 mph 0.02 in Fog , Snow Snow
3:10 PM 26.6 °F 12.4 °F 23.0 °F 86% 29.50 in 0.2 mi NNW 21.9 mph 31.1 mph 0.01 in Fog , Snow Heavy Snow
3:27 PM 26.6 °F 12.0 °F 23.0 °F 86% 29.51 in 0.5 mi NNW 23.0 mph 33.4 mph 0.01 in Fog Light Freezing Fog
3:53 PM 26.1 °F 10.7 °F 23.0 °F 88% 29.57 in 0.5 mi NNW 25.3 mph 33.4 mph 0.02 in Fog Light Freezing Fog
4:43 PM 26.6 °F 10.8 °F 23.0 °F 86% 29.55 in 0.5 mi NNW 27.6 mph 33.4 mph 0.05 in Fog Light Freezing Fog
4:53 PM 26.1 °F 10.1 °F 23.0 °F 88% 29.60 in 0.5 mi NNW 27.6 mph 35.7 mph 0.05 in Fog Light Freezing Fog
5:48 PM 26.6 °F 10.8 °F 23.0 °F 86% 29.57 in 0.5 mi NNW 27.6 mph 39.1 mph N/A Fog Light Freezing Fog
5:53 PM 26.1 °F 9.3 °F 23.0 °F 88% 29.63 in 0.5 mi NNW 31.1 mph 39.1 mph N/A Fog Light Freezing Fog
6:08 PM 26.6 °F 10.3 °F 23.0 °F 86% 29.59 in 1.0 mi NNW 29.9 mph 41.4 mph N/A   Overcast
6:24 PM 26.6 °F 10.6 °F 23.0 °F 86% 29.60 in 1.2 mi NNW 28.8 mph 39.1 mph N/A   Overcast
6:27 PM 26.6 °F 10.0 °F 23.0 °F 86% 29.60 in 1.0 mi NNW 31.1 mph 39.1 mph N/A   Overcast
6:53 PM 26.1 °F 10.4 °F 23.0 °F 88% 29.67 in 1.0 mi NNW 26.5 mph 39.1 mph 0.04 in   Overcast
7:05 PM 26.6 °F 10.8 °F 23.0 °F 86% 29.63 in 1.0 mi NNW 27.6 mph 36.8 mph 0.07 in   Mist
7:24 PM 24.8 °F 8.7 °F 21.2 °F 86% 29.64 in 0.8 mi NNW 26.5 mph 38.0 mph 0.09 in   Mist
7:31 PM 24.8 °F 9.0 °F 21.2 °F 86% 29.64 in 0.8 mi NNW 25.3 mph 34.5 mph 0.12 in   Mist
7:39 PM 24.8 °F 8.1 °F 21.2 °F 86% 29.64 in 1.0 mi NNW 28.8 mph 39.1 mph 0.12 in   Mist
7:46 PM 24.8 °F 7.9 °F 21.2 °F 86% 29.65 in 1.0 mi NNW 29.9 mph 39.1 mph 0.12 in   Mist
7:53 PM 25.0 °F 8.6 °F 21.9 °F 88% 29.70 in 1.0 mi NNW 27.6 mph - 0.12 in   Mist
8:04 PM 24.8 °F 7.3 °F 21.2 °F 86% 29.66 in 0.8 mi NNW 32.2 mph 40.3 mph N/A   Mist
8:30 PM 24.8 °F 7.6 °F 21.2 °F 86% 29.68 in 1.0 mi NNW 31.1 mph 40.3 mph N/A   Overcast
8:50 PM 24.8 °F 7.3 °F 21.2 °F 86% 29.69 in 0.8 mi NNW 32.2 mph 43.7 mph N/A   Overcast
8:53 PM 25.0 °F 7.8 °F 21.0 °F 85% 29.75 in 0.8 mi NNW 31.1 mph 43.7 mph N/A   Overcast
9:05 PM 24.8 °F 7.6 °F 21.2 °F 86% 29.70 in 1.0 mi NNW 31.1 mph 40.3 mph N/A   Overcast
9:41 PM 24.8 °F 7.3 °F 19.4 °F 80% 29.72 in 1.0 mi NNW 32.2 mph 39.1 mph N/A   Overcast
9:50 PM 24.8 °F 7.3 °F 19.4 °F 80% 29.72 in 1.0 mi NNW 32.2 mph 38.0 mph 0.06 in   Overcast
9:53 PM 24.1 °F 6.4 °F 19.9 °F 84% 29.78 in 1.0 mi NNW 32.2 mph 41.4 mph 0.23 in   Overcast
10:18 PM 24.8 °F 8.1 °F 19.4 °F 80% 29.74 in 1.2 mi NNW 28.8 mph 42.6 mph 0.26 in   Overcast
10:53 PM 23.0 °F 5.7 °F 19.0 °F 85% 29.81 in 1.0 mi NNW 28.8 mph - 0.34 in   Overcast
11:53 PM 21.9 °F 3.9 °F 19.0 °F 89% 29.83 in 1.2 mi NW 29.9 mph 38.0 mph N/A Snow Light Snow